GEC8175 SAEZ-EDDF

Flight info

Callsign GEC8175
Flight time N/A
Altitude 29000
Route DORVO1A DORVO UN857 TODUM/N0499F310 UN857 VUPIP UL206 ENRUV/N0498F330 UL206 KODOS/N0496F350 DCT TURUP UA302 ANITI R975 SAKLI UR975 ARDAR/N0486F370 UR975 DIDAN/N0480F380 UR975 ADM/N0418F180 G850 MAK M372 ESAMI/N0479F390 M372 AMR/N0480F380 N860 BEGOX DCT VLC M985 SOPET N608 LRD/N0480F400 N608 GIROM DCT GAI/N0415F180 V12 CFA A27 MOU/N0478F390 DCT EMPAX EMPAX5D
Aircraft MD11/H-SDE1E2E3FGHIJ2J3J4J5M1RWXY/LB1D1

Departure

Time N/A
Airport Ezeiza International Airport - Ministro Pistarini (SAEZ)

Arrival

Time 2026-04-15 11:55
Airport Frankfurt Main Airport (EDDF)
Time Latitude Longitude Altitude Speed Heading
2026-04-15 11:19 48.06757 7.68962 35245 ft 466 kts 61°
2026-04-15 11:19 48.08102 7.73345 35227 ft 463 kts 61°
2026-04-15 11:20 48.10737 7.82067 35225 ft 462 kts 61°
2026-04-15 11:20 48.13394 7.90835 35229 ft 462 kts 61°
2026-04-15 11:21 48.16062 7.99601 35235 ft 462 kts 61°
2026-04-15 11:21 48.18731 8.08380 35231 ft 463 kts 61°
2026-04-15 11:22 48.21374 8.17106 35224 ft 463 kts 61°
2026-04-15 11:22 48.24030 8.25910 35222 ft 463 kts 61°
2026-04-15 11:23 48.26680 8.34729 35221 ft 463 kts 61°
2026-04-15 11:23 48.29320 8.43538 35220 ft 463 kts 61°
2026-04-15 11:24 48.31512 8.50882 35218 ft 463 kts 62°
2026-04-15 11:24 48.34141 8.59718 35222 ft 464 kts 62°
2026-04-15 11:25 48.36764 8.68567 35220 ft 462 kts 61°
2026-04-15 11:25 48.39370 8.77391 34996 ft 460 kts 62°
2026-04-15 11:26 48.40669 8.81799 34666 ft 461 kts 61°
2026-04-15 11:26 48.42108 8.86080 34140 ft 459 kts 55°
2026-04-15 11:26 48.43897 8.90035 33513 ft 454 kts 47°
2026-04-15 11:26 48.44559 8.91214 33307 ft 453 kts 44°
2026-04-15 11:27 48.46832 8.94496 32748 ft 450 kts 36°
2026-04-15 11:27 48.49386 8.97207 32201 ft 449 kts 28°
2026-04-15 11:27 48.52166 8.99350 31650 ft 448 kts 20°
2026-04-15 11:27 48.55070 9.00888 31112 ft 448 kts 13°
2026-04-15 11:28 48.58121 9.01851 30557 ft 449 kts
2026-04-15 11:28 48.61213 9.02383 29931 ft 448 kts
2026-04-15 11:28 48.64324 9.02851 29298 ft 447 kts
2026-04-15 11:28 48.67401 9.03409 28665 ft 444 kts
2026-04-15 11:29 48.70460 9.04047 28079 ft 442 kts
2026-04-15 11:29 48.73497 9.04737 27473 ft 440 kts
2026-04-15 11:29 48.76524 9.05454 26880 ft 439 kts
2026-04-15 11:29 48.79538 9.06179 26297 ft 437 kts
2026-04-15 11:30 48.82537 9.06906 25701 ft 435 kts
2026-04-15 11:30 48.85519 9.07629 25121 ft 434 kts
2026-04-15 11:30 48.88460 9.08276 24548 ft 432 kts
2026-04-15 11:30 48.91438 9.08785 23937 ft 430 kts
2026-04-15 11:31 48.94447 9.09225 23227 ft 428 kts
2026-04-15 11:31 48.97391 9.09628 22592 ft 425 kts
2026-04-15 11:31 49.00298 9.10024 22208 ft 423 kts
2026-04-15 11:31 49.03258 9.10433 21594 ft 422 kts
2026-04-15 11:32 49.06160 9.10841 20827 ft 416 kts
2026-04-15 11:32 49.08994 9.11242 20163 ft 413 kts
2026-04-15 11:32 49.11835 9.11647 19537 ft 410 kts
2026-04-15 11:32 49.14678 9.12054 18925 ft 408 kts
2026-04-15 11:33 49.17496 9.12458 18287 ft 406 kts
2026-04-15 11:33 49.20296 9.12860 17641 ft 403 kts
2026-04-15 11:33 49.23081 9.13260 17234 ft 400 kts
2026-04-15 11:33 49.25847 9.13658 16847 ft 397 kts
2026-04-15 11:34 49.28575 9.14149 16468 ft 395 kts
2026-04-15 11:34 49.31270 9.14926 15836 ft 394 kts 12°
2026-04-15 11:34 49.33911 9.15837 15020 ft 388 kts 13°
2026-04-15 11:34 49.36522 9.16791 14306 ft 382 kts 13°
2026-04-15 11:35 49.39098 9.17739 13640 ft 377 kts 13°
2026-04-15 11:35 49.41653 9.18671 13086 ft 378 kts 13°
2026-04-15 11:35 49.44190 9.19590 12499 ft 374 kts 12°
2026-04-15 11:35 49.46721 9.20500 11947 ft 373 kts 13°
2026-04-15 11:36 49.49246 9.21406 11490 ft 370 kts 12°
2026-04-15 11:36 49.51749 9.22300 11239 ft 368 kts 13°
2026-04-15 11:36 49.54268 9.22773 10734 ft 362 kts 358°
2026-04-15 11:36 49.56720 9.21970 10011 ft 357 kts 335°
2026-04-15 11:37 49.58681 9.19880 9862 ft 333 kts 313°
2026-04-15 11:37 49.59895 9.17006 9724 ft 311 kts 292°
2026-04-15 11:37 49.60772 9.14064 9587 ft 294 kts 296°
2026-04-15 11:37 49.61731 9.11363 9390 ft 281 kts 298°
2026-04-15 11:38 49.62679 9.08790 8996 ft 278 kts 298°
2026-04-15 11:38 49.63634 9.06198 8588 ft 277 kts 298°
2026-04-15 11:38 49.64578 9.03608 8152 ft 276 kts 298°
2026-04-15 11:38 49.65513 9.01028 7748 ft 275 kts 298°
2026-04-15 11:39 49.66440 8.98453 7346 ft 273 kts 298°
2026-04-15 11:39 49.67357 8.95897 6954 ft 272 kts 297°
2026-04-15 11:39 49.68270 8.93341 6560 ft 270 kts 297°
2026-04-15 11:39 49.69175 8.90803 6167 ft 270 kts 298°
2026-04-15 11:40 49.70078 8.88265 5774 ft 269 kts 298°
2026-04-15 11:40 49.70977 8.85734 5406 ft 268 kts 298°
2026-04-15 11:40 49.71866 8.83229 5106 ft 265 kts 298°
2026-04-15 11:40 49.72753 8.80725 4848 ft 266 kts 298°
2026-04-15 11:41 49.73641 8.78220 4592 ft 265 kts 298°
2026-04-15 11:41 49.74523 8.75726 4335 ft 264 kts 299°
2026-04-15 11:41 49.75398 8.73249 4247 ft 262 kts 299°
2026-04-15 11:41 49.76277 8.70759 4053 ft 264 kts 299°
2026-04-15 11:42 49.77151 8.68277 3973 ft 261 kts 299°
2026-04-15 11:42 49.78017 8.65805 3955 ft 261 kts 297°
2026-04-15 11:42 49.78536 8.63118 3959 ft 261 kts 279°
2026-04-15 11:42 49.78740 8.60368 3963 ft 249 kts 275°
2026-04-15 11:43 49.78906 8.57766 3965 ft 237 kts 276°
2026-04-15 11:43 49.79091 8.55230 3967 ft 236 kts 277°
2026-04-15 11:43 49.79294 8.52739 3966 ft 236 kts 277°
2026-04-15 11:43 49.79516 8.50218 3954 ft 236 kts 278°
2026-04-15 11:44 49.79751 8.47693 3969 ft 237 kts 278°
2026-04-15 11:44 49.79993 8.45169 3977 ft 238 kts 278°
2026-04-15 11:44 49.80242 8.42639 3965 ft 237 kts 279°
2026-04-15 11:44 49.80495 8.40113 3966 ft 236 kts 278°
2026-04-15 11:45 49.80750 8.37598 3978 ft 236 kts 279°
2026-04-15 11:45 49.81042 8.35096 3967 ft 236 kts 282°
2026-04-15 11:45 49.81389 8.32612 3966 ft 237 kts 282°
2026-04-15 11:45 49.81744 8.30115 3981 ft 238 kts 282°
2026-04-15 11:46 49.82094 8.27660 3957 ft 235 kts 282°
2026-04-15 11:46 49.82445 8.25178 3973 ft 236 kts 282°
2026-04-15 11:46 49.82810 8.22700 3973 ft 235 kts 287°
2026-04-15 11:46 49.83624 8.20527 3971 ft 234 kts 316°
2026-04-15 11:47 49.85003 8.19232 3968 ft 231 kts 340°
2026-04-15 11:47 49.86457 8.18435 3968 ft 215 kts 342°
2026-04-15 11:47 49.87866 8.17676 3985 ft 215 kts 342°
2026-04-15 11:47 49.89281 8.16897 3987 ft 216 kts 341°
2026-04-15 11:48 49.90698 8.16121 3986 ft 215 kts 343°
2026-04-15 11:48 49.92115 8.15349 3978 ft 216 kts 342°
2026-04-15 11:48 49.93545 8.14722 3984 ft 213 kts 356°
2026-04-15 11:48 49.94967 8.15142 3977 ft 209 kts 31°
2026-04-15 11:49 49.95920 8.16740 3975 ft 203 kts 67°
2026-04-15 11:49 49.96414 8.18810 3993 ft 205 kts 73°
2026-04-15 11:49 49.96872 8.20910 3997 ft 206 kts 73°
2026-04-15 11:49 49.97340 8.22987 3983 ft 206 kts 72°
2026-04-15 11:50 49.97809 8.24964 3869 ft 184 kts 70°
2026-04-15 11:50 49.98263 8.26759 3644 ft 174 kts 69°
2026-04-15 11:50 49.98672 8.28525 3388 ft 172 kts 75°
2026-04-15 11:50 49.98840 8.30351 3284 ft 172 kts 91°
2026-04-15 11:51 49.98772 8.32194 3187 ft 169 kts 94°
2026-04-15 11:51 49.98675 8.34023 3132 ft 167 kts 96°
2026-04-15 11:51 49.98615 8.35759 2804 ft 160 kts 86°
2026-04-15 11:51 49.98808 8.37406 2476 ft 150 kts 72°
2026-04-15 11:52 49.99218 8.38873 2254 ft 148 kts 67°
2026-04-15 11:52 49.99615 8.40329 2062 ft 146 kts 69°
2026-04-15 11:52 49.99985 8.41800 1781 ft 146 kts 71°
2026-04-15 11:52 50.00311 8.43286 1570 ft 146 kts 71°
2026-04-15 11:53 50.00700 8.44754 1367 ft 147 kts 68°
2026-04-15 11:53 50.01083 8.46193 1122 ft 145 kts 70°
2026-04-15 11:53 50.01380 8.47680 1021 ft 145 kts 71°
2026-04-15 11:53 50.01731 8.49138 886 ft 144 kts 67°
2026-04-15 11:54 50.02080 8.50607 754 ft 146 kts 69°
2026-04-15 11:54 50.02437 8.52113 571 ft 149 kts 67°
2026-04-15 11:54 50.02801 8.53616 372 ft 147 kts 68°
2026-04-15 11:54 50.03123 8.54954 354 ft 115 kts 69°
2026-04-15 11:55 50.03373 8.55993 359 ft 83 kts 70°
2026-04-15 11:55 50.03509 8.56574 365 ft 47 kts 70°
2026-04-15 11:55 50.03644 8.56994 365 ft 35 kts 50°
2026-04-15 11:55 50.03802 8.57214 370 ft 22 kts 39°
2026-04-15 11:56 50.03844 8.57257 371 ft 1 kts 17°
2026-04-15 11:56 50.03883 8.57310 400 ft 12 kts 44°
2026-04-15 11:56 50.03939 8.57401 376 ft 14 kts 50°
2026-04-15 11:56 50.03987 8.57549 374 ft 16 kts 68°
2026-04-15 11:57 50.04030 8.57729 378 ft 19 kts 71°
2026-04-15 11:57 50.04113 8.58067 379 ft 15 kts 64°
2026-04-15 11:57 50.04194 8.58174 380 ft 16 kts 28°
2026-04-15 11:58 50.04299 8.58192 377 ft 15 kts 345°
2026-04-15 11:58 50.04396 8.58140 379 ft 14 kts 340°
2026-04-15 11:58 50.04504 8.58078 376 ft 18 kts 336°
2026-04-15 11:58 50.04535 8.58004 373 ft 10 kts 267°
2026-04-15 11:59 50.04506 8.57870 374 ft 13 kts 250°
2026-04-15 11:59 50.04478 8.57749 375 ft 11 kts 249°
2026-04-15 11:59 50.04452 8.57641 375 ft 10 kts 248°
2026-04-15 11:59 50.04427 8.57534 372 ft 12 kts 250°
2026-04-15 12:00 50.04391 8.57386 370 ft 18 kts 249°
2026-04-15 12:00 50.04348 8.57207 371 ft 17 kts 250°
2026-04-15 12:00 50.04307 8.57035 369 ft 17 kts 250°
2026-04-15 12:00 50.04266 8.56860 371 ft 17 kts 250°
2026-04-15 12:01 50.04225 8.56688 370 ft 17 kts 249°
2026-04-15 12:01 50.04183 8.56510 368 ft 17 kts 250°
2026-04-15 12:01 50.04141 8.56335 367 ft 17 kts 249°
2026-04-15 12:01 50.04099 8.56161 363 ft 17 kts 249°
2026-04-15 12:02 50.04058 8.55993 363 ft 17 kts 249°
2026-04-15 12:02 50.04017 8.55823 364 ft 19 kts 249°
2026-04-15 12:02 50.03969 8.55617 362 ft 20 kts 250°
2026-04-15 12:02 50.03921 8.55423 360 ft 18 kts 248°
2026-04-15 12:03 50.03879 8.55239 366 ft 17 kts 251°
2026-04-15 12:03 50.03837 8.55061 364 ft 18 kts 249°
2026-04-15 12:03 50.03793 8.54882 362 ft 18 kts 250°
2026-04-15 12:03 50.03749 8.54697 361 ft 18 kts 248°
2026-04-15 12:04 50.03703 8.54505 353 ft 19 kts 249°
2026-04-15 12:04 50.03699 8.54418 355 ft 4 kts 297°
2026-04-15 12:04 50.03725 8.54389 352 ft 8 kts 329°
2026-04-15 12:04 50.03786 8.54345 357 ft 9 kts 338°
2026-04-15 12:05 50.03842 8.54348 358 ft 9 kts 28°
2026-04-15 12:05 50.03883 8.54456 361 ft 16 kts 68°
2026-04-15 12:05 50.03930 8.54641 364 ft 17 kts 65°
2026-04-15 12:05 50.03968 8.54682 358 ft 6 kts
2026-04-15 12:06 50.04017 8.54669 361 ft 2 kts 359°
2026-04-15 12:06 50.04030 8.54684 364 ft 4 kts 47°
2026-04-15 12:06 50.04051 8.54747 361 ft 6 kts 66°
2026-04-15 12:06 50.04057 8.54771 364 ft 1 kts 68°
2026-04-15 12:07 50.04059 8.54779 362 ft 0 kts 69°